| time (UTC) | temp F | wind direction | speed MPH | gust MPH | rain 1hr in | rain 24hr in | rain mn in | humidity % | barometer mb |
| 20260902053105 | 61 | 0 | 0.0 | 2.0 | 0.00 | 0.00 | 0.00 | 87 | 1016.6 |
| 20260902051613 | 62 | 0 | 0.0 | 3.0 | 0.00 | 0.00 | 0.00 | 86 | 1016.5 |
| 20260902050113 | 62 | 0 | 1.0 | 5.0 | 0.00 | 0.00 | 0.00 | 85 | 1016.5 |
| 20260902044601 | 62 | 251 | 2.0 | 5.0 | 0.00 | 0.00 | 0.00 | 84 | 1016.6 |
| 20260902043111 | 63 | 239 | 2.0 | 6.0 | 0.00 | 0.00 | 0.00 | 83 | 1016.5 |
| 20260902041601 | 63 | 240 | 1.0 | 4.0 | 0.00 | 0.00 | 0.00 | 82 | 1016.4 |
| 20260902040104 | 63 | 0 | 0.0 | 4.0 | 0.00 | 0.00 | 0.00 | 81 | 1016.1 |
| 20260902034556 | 63 | 240 | 2.0 | 6.0 | 0.00 | 0.00 | 0.00 | 80 | 1015.9 |
| 20260902033109 | 63 | 243 | 1.0 | 5.0 | 0.00 | 0.00 | 0.00 | 79 | 1015.9 |
| 20260902031604 | 63 | 247 | 1.0 | 3.0 | 0.00 | 0.00 | 0.00 | 79 | 1016.0 |
| 20260902030100 | 64 | 0 | 0.0 | 3.0 | 0.00 | 0.00 | 0.00 | 78 | 1015.8 |
| 20260902024611 | 64 | 236 | 1.0 | 4.0 | 0.00 | 0.00 | 0.00 | 77 | 1015.7 |
| 20260902023100 | 65 | 288 | 2.0 | 7.0 | 0.00 | 0.00 | 0.00 | 76 | 1015.8 |
| 20260902021603 | 65 | 223 | 2.0 | 11.0 | 0.00 | 0.00 | 0.00 | 75 | 1015.8 |
| 20260902020128 | 65 | 259 | 6.0 | 11.0 | 0.00 | 0.00 | 0.00 | 74 | 1015.6 |
| 20260902014601 | 66 | 285 | 8.0 | 14.0 | 0.00 | 0.00 | 0.00 | 72 | 1015.7 |
| 20260902013106 | 67 | 338 | 5.0 | 13.0 | 0.00 | 0.00 | 0.00 | 71 | 1015.7 |
| 20260902011601 | 67 | 258 | 6.0 | 15.0 | 0.00 | 0.00 | 0.00 | 69 | 1015.7 |
| 20260902010106 | 68 | 252 | 6.0 | 13.0 | 0.00 | 0.00 | 0.00 | 70 | 1015.7 |
| 20260902004604 | 67 | 277 | 9.0 | 16.0 | 0.00 | 0.00 | 0.00 | 68 | 1015.6 |
| 20260902003105 | 67 | 273 | 8.0 | 18.0 | 0.00 | 0.00 | 0.00 | 66 | 1015.4 |
| 20260902001601 | 67 | 241 | 8.0 | 14.0 | 0.00 | 0.00 | 0.00 | 66 | 1015.5 |
| 20260902000105 | 68 | 344 | 7.0 | 18.0 | 0.00 | 0.00 | 0.00 | 63 | 1015.5 |
| 20260901234612 | 69 | 244 | 7.0 | 16.0 | 0.00 | 0.00 | 0.00 | 65 | 1015.4 |
| 20260901233104 | 70 | 284 | 6.0 | 14.0 | 0.00 | 0.00 | 0.00 | 64 | 1015.4 |
| 20260901231559 | 70 | 255 | 8.0 | 16.0 | 0.00 | 0.00 | 0.00 | 64 | 1015.4 |
| 20260901230105 | 70 | 300 | 7.0 | 15.0 | 0.00 | 0.00 | 0.00 | 63 | 1015.4 |
| 20260901224612 | 70 | 252 | 6.0 | 15.0 | 0.00 | 0.00 | 0.00 | 64 | 1015.4 |
| 20260901223116 | 70 | 253 | 8.0 | 15.0 | 0.00 | 0.00 | 0.00 | 61 | 1015.5 |
| 20260901221632 | 71 | 281 | 9.0 | 15.0 | 0.00 | 0.00 | 0.00 | 59 | 1015.5 |
| 20260901220110 | 72 | 301 | 7.0 | 20.0 | 0.00 | 0.00 | 0.00 | 60 | 1015.6 |
| 20260901214604 | 71 | 292 | 9.0 | 16.0 | 0.00 | 0.00 | 0.00 | 60 | 1015.5 |
| 20260901213108 | 71 | 258 | 7.0 | 15.0 | 0.00 | 0.00 | 0.00 | 59 | 1015.5 |
| 20260901211604 | 71 | 294 | 4.0 | 16.0 | 0.00 | 0.00 | 0.00 | 60 | 1015.5 |
| 20260901204602 | 71 | 187 | 5.0 | 12.0 | 0.00 | 0.00 | 0.00 | 62 | 1015.5 |
| 20260901203107 | 69 | 226 | 6.0 | 13.0 | 0.00 | 0.00 | 0.00 | 65 | 1015.6 |
| 20260901201604 | 69 | 266 | 5.0 | 13.0 | 0.00 | 0.00 | 0.00 | 64 | 1015.7 |
| 20260901194601 | 69 | 261 | 4.0 | 9.0 | 0.00 | 0.00 | 0.00 | 63 | 1015.9 |
| 20260901193111 | 69 | 263 | 3.0 | 9.0 | 0.00 | 0.00 | 0.00 | 64 | 1015.8 |
| 20260901191603 | 69 | 327 | 3.0 | 12.0 | 0.00 | 0.00 | 0.00 | 64 | 1016.0 |
| 20260901190107 | 69 | 302 | 5.0 | 10.0 | 0.00 | 0.00 | 0.00 | 63 | 1016.0 |
| 20260901184610 | 69 | 248 | 3.0 | 9.0 | 0.00 | 0.00 | 0.00 | 66 | 1016.0 |
| 20260901183107 | 67 | 290 | 5.0 | 9.0 | 0.00 | 0.00 | 0.00 | 70 | 1016.2 |
| 20260901181603 | 66 | 277 | 3.0 | 9.0 | 0.00 | 0.00 | 0.00 | 74 | 1016.1 |
| 20260901180106 | 65 | 244 | 3.0 | 11.0 | 0.00 | 0.00 | 0.00 | 76 | 1016.2 |
| 20260901174602 | 66 | 273 | 1.0 | 7.0 | 0.00 | 0.00 | 0.00 | 74 | 1016.1 |
| 20260901173102 | 66 | 304 | 3.0 | 7.0 | 0.00 | 0.00 | 0.00 | 74 | 1015.8 |
| 20260901171608 | 66 | 296 | 0.0 | 6.0 | 0.00 | 0.00 | 0.00 | 76 | 1015.7 |
| 20260901170108 | 65 | 265 | 2.0 | 7.0 | 0.00 | 0.00 | 0.00 | 79 | 1015.5 |
| 20260901164609 | 64 | 281 | 1.0 | 6.0 | 0.00 | 0.00 | 0.00 | 80 | 1015.7 |
| 20260901163119 | 63 | 284 | 0.0 | 3.0 | 0.00 | 0.00 | 0.00 | 82 | 1015.5 |
| 20260901161600 | 61 | 0 | 0.0 | 7.0 | 0.00 | 0.00 | 0.00 | 85 | 1015.5 |
| 20260901160106 | 62 | 311 | 6.0 | 11.0 | 0.00 | 0.00 | 0.00 | 84 | 1015.5 |
| 20260901154607 | 62 | 343 | 3.0 | 8.0 | 0.00 | 0.00 | 0.00 | 84 | 1015.4 |
| 20260901153105 | 62 | 10 | 1.0 | 4.0 | 0.00 | 0.00 | 0.00 | 85 | 1015.2 |
| 20260901151603 | 61 | 0 | 0.0 | 4.0 | 0.00 | 0.00 | 0.00 | 87 | 1015.0 |
| 20260901150116 | 61 | 239 | 0.0 | 2.0 | 0.00 | 0.00 | 0.00 | 89 | 1014.9 |
| 20260901144608 | 60 | 0 | 1.0 | 3.0 | 0.00 | 0.00 | 0.00 | 89 | 1014.7 |
| 20260901143109 | 60 | 0 | 1.0 | 3.0 | 0.00 | 0.00 | 0.00 | 90 | 1014.5 |
| 20260901141604 | 59 | 0 | 0.0 | 1.0 | 0.00 | 0.00 | 0.00 | 90 | 1014.3 |
| 20260901140110 | 59 | 0 | 0.0 | 2.0 | 0.00 | 0.00 | 0.00 | 89 | 1014.1 |
| 20260901134629 | 59 | 219 | 1.0 | 3.0 | 0.00 | 0.00 | 0.00 | 89 | 1013.9 |
| 20260901133102 | 59 | 0 | 0.0 | 3.0 | 0.00 | 0.00 | 0.00 | 89 | 1013.8 |
| 20260901131603 | 59 | 0 | 0.0 | 3.0 | 0.00 | 0.00 | 0.00 | 88 | 1013.6 |
| 20260901130110 | 58 | 241 | 0.0 | 0.0 | 0.00 | 0.00 | 0.00 | 88 | 1013.5 |
| 20260901124608 | 58 | 0 | 0.0 | 2.0 | 0.00 | 0.00 | 0.00 | 89 | 1013.4 |
| 20260901123105 | 57 | 0 | 0.0 | 2.0 | 0.00 | 0.00 | 0.00 | 88 | 1013.3 |
| 20260901121604 | 57 | 217 | 0.0 | 3.0 | 0.00 | 0.00 | 0.00 | 88 | 1013.3 |
| 20260901120108 | 57 | 0 | 0.0 | 0.0 | 0.00 | 0.00 | 0.00 | 88 | 1013.2 |
| 20260901114622 | 57 | 0 | 0.0 | 0.0 | 0.00 | 0.00 | 0.00 | 89 | 1013.2 |
| 20260901113142 | 57 | 0 | 0.0 | 0.0 | 0.00 | 0.00 | 0.00 | 89 | 1013.2 |
| 20260901111603 | 57 | 0 | 0.0 | 0.0 | 0.00 | 0.00 | 0.00 | 89 | 1013.5 |
| 20260901110108 | 57 | 0 | 0.0 | 0.0 | 0.00 | 0.00 | 0.00 | 89 | 1013.7 |
| 20260901104606 | 57 | 247 | 2.0 | 4.0 | 0.00 | 0.00 | 0.00 | 90 | 1013.9 |
| 20260901103105 | 57 | 249 | 0.0 | 2.0 | 0.00 | 0.00 | 0.00 | 91 | 1013.7 |
| 20260901101615 | 57 | 0 | 0.0 | 2.0 | 0.00 | 0.00 | 0.00 | 91 | 1013.6 |
| 20260901100120 | 56 | 0 | 0.0 | 3.0 | 0.00 | 0.00 | 0.00 | 91 | 1013.5 |
| 20260901094601 | 56 | 0 | 0.0 | 3.0 | 0.00 | 0.00 | 0.00 | 91 | 1013.4 |
| 20260901093102 | 56 | 205 | 0.0 | 2.0 | 0.00 | 0.00 | 0.00 | 90 | 1013.5 |
| 20260901091606 | 56 | 0 | 0.0 | 2.0 | 0.00 | 0.00 | 0.00 | 90 | 1013.3 |
| 20260901090109 | 56 | 0 | 0.0 | 0.0 | 0.00 | 0.00 | 0.00 | 89 | 1013.3 |
| 20260901084606 | 56 | 0 | 0.0 | 0.0 | 0.00 | 0.00 | 0.00 | 89 | 1013.4 |
| 20260901083106 | 56 | 0 | 0.0 | 0.0 | 0.00 | 0.00 | 0.00 | 89 | 1013.3 |
| 20260901081617 | 56 | 0 | 0.0 | 0.0 | 0.00 | 0.00 | 0.00 | 89 | 1013.3 |
| 20260901074607 | 57 | 0 | 0.0 | 0.0 | 0.00 | 0.00 | 0.00 | 88 | 1013.1 |
| 20260901073106 | 57 | 0 | 0.0 | 0.0 | 0.00 | 0.00 | 0.00 | 88 | 1013.0 |
| 20260901071604 | 57 | 0 | 0.0 | 0.0 | 0.00 | 0.00 | 0.00 | 88 | 1013.0 |
| 20260901070110 | 58 | 0 | 0.0 | 0.0 | 0.00 | 0.00 | 0.00 | 87 | 1013.0 |
| 20260901064606 | 58 | 0 | 0.0 | 0.0 | 0.00 | 0.00 | 0.00 | 87 | 1013.1 |
| 20260901063105 | 58 | 0 | 0.0 | 0.0 | 0.00 | 0.00 | 0.00 | 87 | 1013.0 |
| 20260901061611 | 58 | 0 | 0.0 | 0.0 | 0.00 | 0.00 | 0.00 | 86 | 1013.1 |
| 20260901060112 | 59 | 0 | 0.0 | 0.0 | 0.00 | 0.00 | 0.00 | 86 | 1013.1 |
| 20260901054601 | 59 | 0 | 0.0 | 3.0 | 0.00 | 0.00 | 0.00 | 85 | 1013.1 |